• In Hungary
  • List of Countries
  • For 7 days
  • Water Temperature
  • Satellite Maps
  • Weather Map
  • News
  • Weather Widgets
  • user-avatar
    Login

    Hourly Weather Nagumanovka

    Today, 18 June, Monday

    Time Temperature Precipitation Wind Pressure Humidity
    00:00 +13°C° 0 mm 3 mps 745 mmHg 84%
    01:00 +13°C° 0 mm 3 mps 745 mmHg 86%
    02:00 +12°C° 0 mm 3 mps 745 mmHg 88%
    03:00 +12°C° 0 mm 3 mps 745 mmHg 90%
    04:00 +11°C° 0 mm 3 mps 745 mmHg 91%
    05:00 +12°C° 0 mm 3 mps 745 mmHg 87%
    06:00 +13°C° 0 mm 4 mps 746 mmHg 82%
    07:00 +14°C° 0 mm 4 mps 746 mmHg 77%
    08:00 +15°C° 0 mm 4 mps 746 mmHg 71%
    09:00 +18°C° 0 mm 4 mps 746 mmHg 64%
    10:00 +19°C° 0 mm 4 mps 746 mmHg 58%
    11:00 +20°C° 0 mm 4 mps 746 mmHg 56%
    12:00 +20°C° 0 mm 4 mps 746 mmHg 55%
    13:00 +21°C° 0 mm 4 mps 745 mmHg 53%
    14:00 +21°C° 0 mm 4 mps 745 mmHg 51%
    15:00 +21°C° 0 mm 5 mps 745 mmHg 50%
    16:00 +22°C° 0 mm 5 mps 745 mmHg 49%
    17:00 +21°C° 0 mm 4 mps 745 mmHg 52%
    18:00 +21°C° 0 mm 4 mps 745 mmHg 56%
    19:00 +20°C° 0 mm 4 mps 745 mmHg 59%
    20:00 +19°C° 0 mm 3 mps 745 mmHg 65%
    21:00 +17°C° 0 mm 3 mps 746 mmHg 71%
    22:00 +16°C° 0 mm 2 mps 746 mmHg 77%
    23:00 +16°C° 0 mm 2 mps 746 mmHg 79%

    Tomorrow, 19 June, Tuesday

    Time Temperature Precipitation Wind Pressure Humidity
    00:00 +15°C° 0 mm 2 mps 746 mmHg 81%
    01:00 +15°C° 0 mm 2 mps 745 mmHg 83%
    02:00 +14°C° 0 mm 3 mps 746 mmHg 85%
    03:00 +13°C° 0 mm 3 mps 746 mmHg 87%
    04:00 +13°C° 0 mm 3 mps 746 mmHg 89%
    05:00 +14°C° 0 mm 3 mps 746 mmHg 85%
    06:00 +17°C° 0 mm 3 mps 746 mmHg 80%
    07:00 +18°C° 0 mm 3 mps 746 mmHg 75%
    08:00 +20°C° 0 mm 3 mps 746 mmHg 69%
    09:00 +21°C° 0 mm 3 mps 746 mmHg 62%
    10:00 +23°C° 0 mm 4 mps 746 mmHg 55%
    11:00 +25°C° 0 mm 4 mps 746 mmHg 51%
    12:00 +26°C° 0 mm 4 mps 746 mmHg 47%
    13:00 +26°C° 0 mm 4 mps 746 mmHg 44%
    14:00 +27°C° 0 mm 4 mps 746 mmHg 43%
    15:00 +27°C° 0 mm 4 mps 746 mmHg 42%
    16:00 +27°C° 0 mm 4 mps 745 mmHg 42%
    17:00 +26°C° 0 mm 4 mps 745 mmHg 45%
    18:00 +26°C° 0 mm 3 mps 746 mmHg 48%
    19:00 +25°C° 0 mm 3 mps 746 mmHg 51%
    20:00 +24°C° 0 mm 3 mps 746 mmHg 55%
    21:00 +21°C° 0 mm 3 mps 746 mmHg 59%
    22:00 +19°C° 0 mm 3 mps 746 mmHg 64%
    23:00 +19°C° 0 mm 3 mps 746 mmHg 66%

    Day after tomorrow, 20 June, Wednesday

    Time Temperature Precipitation Wind Pressure Humidity
    00:00 +19°C° 0 mm 3 mps 746 mmHg 68%
    01:00 +18°C° 0 mm 3 mps 746 mmHg 70%
    02:00 +18°C° 0 mm 2 mps 746 mmHg 73%
    03:00 +17°C° 0 mm 2 mps 746 mmHg 76%
    04:00 +16°C° 0 mm 2 mps 746 mmHg 79%
    05:00 +18°C° 0 mm 2 mps 746 mmHg 75%
    06:00 +19°C° 0 mm 2 mps 747 mmHg 71%
    07:00 +21°C° 0 mm 3 mps 747 mmHg 66%
    08:00 +22°C° 0 mm 3 mps 747 mmHg 61%
    09:00 +25°C° 0 mm 4 mps 747 mmHg 55%
    10:00 +26°C° 0 mm 4 mps 747 mmHg 49%
    11:00 +26°C° 0 mm 5 mps 747 mmHg 48%
    12:00 +27°C° 0 mm 5 mps 746 mmHg 46%
    13:00 +27°C° 0 mm 5 mps 746 mmHg 45%
    14:00 +27°C° 0 mm 5 mps 746 mmHg 45%
    15:00 +27°C° 0 mm 6 mps 746 mmHg 45%
    16:00 +28°C° 0 mm 6 mps 746 mmHg 45%
    17:00 +27°C° 0 mm 5 mps 745 mmHg 47%
    18:00 +27°C° 0 mm 4 mps 745 mmHg 50%
    19:00 +26°C° 0 mm 4 mps 745 mmHg 53%
    20:00 +25°C° 0 mm 4 mps 745 mmHg 55%
    21:00 +23°C° 0 mm 4 mps 745 mmHg 57%
    22:00 +21°C° 0 mm 4 mps 745 mmHg 59%
    23:00 +21°C° 0 mm 4 mps 744 mmHg 60%

    21 June, Thursday

    Time Temperature Precipitation Wind Pressure Humidity
    00:00 +21°C° 0 mm 5 mps 744 mmHg 61%
    01:00 +21°C° 0 mm 5 mps 744 mmHg 63%
    02:00 +20°C° 0 mm 5 mps 744 mmHg 72%
    03:00 +19°C° 0 mm 4 mps 744 mmHg 81%
    04:00 +18°C° 0 mm 4 mps 745 mmHg 90%
    05:00 +17°C° 0 mm 5 mps 745 mmHg 82%
    06:00 +19°C° 0 mm 5 mps 746 mmHg 74%
    07:00 +19°C° 0 mm 5 mps 746 mmHg 66%
    08:00 +20°C° 0 mm 5 mps 746 mmHg 58%
    09:00 +21°C° 0 mm 6 mps 747 mmHg 50%
    10:00 +22°C° 0 mm 6 mps 747 mmHg 43%
    11:00 +23°C° 0 mm 6 mps 747 mmHg 41%
    12:00 +24°C° 0 mm 6 mps 747 mmHg 39%
    13:00 +24°C° 0 mm 6 mps 747 mmHg 37%
    14:00 +24°C° 0 mm 6 mps 747 mmHg 38%
    15:00 +26°C° 0 mm 6 mps 747 mmHg 39%
    16:00 +26°C° 0 mm 7 mps 747 mmHg 40%
    17:00 +24°C° 0 mm 6 mps 747 mmHg 44%
    18:00 +23°C° 0 mm 5 mps 748 mmHg 48%
    19:00 +23°C° 0 mm 4 mps 748 mmHg 51%
    20:00 +21°C° 0 mm 3 mps 748 mmHg 55%
    21:00 +20°C° 0 mm 3 mps 748 mmHg 59%
    22:00 +18°C° 0 mm 2 mps 748 mmHg 63%
    23:00 +17°C° 0 mm 2 mps 748 mmHg 65%

    22 June, Friday

    Time Temperature Precipitation Wind Pressure Humidity
    00:00 +17°C° 0 mm 2 mps 748 mmHg 66%
    01:00 +16°C° 0 mm 2 mps 748 mmHg 68%
    02:00 +16°C° 0 mm 2 mps 748 mmHg 68%
    03:00 +16°C° 0 mm 2 mps 748 mmHg 68%
    04:00 +16°C° 0 mm 3 mps 748 mmHg 68%
    05:00 +17°C° 0 mm 3 mps 749 mmHg 66%
    06:00 +18°C° 0 mm 4 mps 749 mmHg 64%
    07:00 +20°C° 0 mm 5 mps 749 mmHg 62%
    08:00 +21°C° 0 mm 5 mps 749 mmHg 58%
    09:00 +22°C° 0 mm 6 mps 749 mmHg 53%
    10:00 +23°C° 0 mm 6 mps 749 mmHg 49%
    11:00 +24°C° 0 mm 6 mps 749 mmHg 45%
    12:00 +24°C° 0 mm 7 mps 749 mmHg 42%
    13:00 +26°C° 0 mm 7 mps 749 mmHg 39%
    14:00 +26°C° 0 mm 7 mps 749 mmHg 39%
    15:00 +26°C° 0 mm 7 mps 749 mmHg 40%
    16:00 +26°C° 0 mm 7 mps 749 mmHg 40%
    17:00 +24°C° 0 mm 6 mps 749 mmHg 44%
    18:00 +23°C° 0 mm 5 mps 749 mmHg 47%
    19:00 +22°C° 0 mm 4 mps 749 mmHg 51%
    20:00 +21°C° 0 mm 4 mps 750 mmHg 55%
    21:00 +19°C° 0 mm 3 mps 750 mmHg 60%
    22:00 +17°C° 0 mm 3 mps 750 mmHg 65%
    23:00 +16°C° 0 mm 3 mps 750 mmHg 68%

    23 June, Saturday

    Time Temperature Precipitation Wind Pressure Humidity
    00:00 +16°C° 0 mm 2 mps 750 mmHg 70%
    01:00 +15°C° 0 mm 2 mps 750 mmHg 73%
    02:00 +14°C° 0 mm 2 mps 751 mmHg 74%
    03:00 +14°C° 0 mm 2 mps 751 mmHg 76%
    04:00 +14°C° 0 mm 2 mps 751 mmHg 77%
    05:00 +15°C° 0 mm 2 mps 751 mmHg 72%
    06:00 +17°C° 0 mm 3 mps 751 mmHg 68%
    07:00 +18°C° 0 mm 3 mps 752 mmHg 63%
    08:00 +20°C° 0 mm 3 mps 752 mmHg 57%
    09:00 +21°C° 0 mm 4 mps 752 mmHg 50%
    10:00 +23°C° 0 mm 4 mps 752 mmHg 43%
    11:00 +25°C° 0 mm 4 mps 751 mmHg 41%
    12:00 +26°C° 0 mm 4 mps 751 mmHg 38%
    13:00 +27°C° 0 mm 4 mps 751 mmHg 36%
    14:00 +27°C° 0 mm 4 mps 751 mmHg 36%
    15:00 +27°C° 0 mm 5 mps 751 mmHg 36%
    16:00 +28°C° 0 mm 5 mps 750 mmHg 37%
    17:00 +27°C° 0 mm 4 mps 750 mmHg 41%
    18:00 +27°C° 0 mm 4 mps 750 mmHg 45%
    19:00 +26°C° 0 mm 3 mps 750 mmHg 49%
    20:00 +24°C° 0 mm 3 mps 750 mmHg 55%
    21:00 +21°C° 0 mm 2 mps 750 mmHg 61%
    22:00 +19°C° 0 mm 2 mps 751 mmHg 66%
    23:00 +19°C° 0 mm 2 mps 751 mmHg 69%
    Show more